Weather History for Brownwood, TX

Change the Weather History Date:

Monday, September 3, 2012

  Actual Average (KABI) Record (KABI)
Temperature  
Mean Temperature 86 °F 80 °F  
Max Temperature 100 °F 91 °F 104 °F (2000)
Min Temperature 71 °F 68 °F 52 °F (1974)
Degree Days  
Heating Degree Days 0 0  
Month to date heating degree days 0  
Since 1 July heating degree days 0  
Cooling Degree Days 20 15  
Month to date cooling degree days 45  
Year to date cooling degree days 1990  
Growing Degree Days 36 (Base 50)    
Moisture  
Dew Point 60 °F    
Average Humidity 44    
Maximum Humidity 78    
Minimum Humidity 22    
Precipitation  
Precipitation 0.00 in 0.08 in 4.50 in (1961)
Month to date precipitation 0.24  
Year to date precipitation 17.20  
Sea Level Pressure  
Sea Level Pressure 29.96 in    
Wind  
Wind Speed 7 mph (SSE)    
Max Wind Speed 14 mph    
Max Gust Speed 22 mph    
Visibility 10 miles    
Events      
T = Trace of Precipitation, MM = Missing Value Source: NWS Daily Summary

Daily Weather History Graph

Daily Weather History Graph

Search for Another Location

Airport:

Trip Planner

Search our weather history database for the weather conditions in past years. The results will help you decide how hot, cold, wet, or windy it might be!

Date:

Astronomy

Sep. 03, 2012 Rise Set
Actual Time 7:12 AM CDT 7:56 PM CDT
Civil Twilight 6:48 AM CDT 8:21 PM CDT
Nautical Twilight 6:18 AM CDT 8:50 PM CDT
Astronomical Twilight 5:49 AM CDT 9:20 PM CDT
Moon 9:34 PM CDT (9/3) 10:06 AM CDT (9/3)
Length of Visible Light 13h 33m
Length of Day
12h 43m
Waning Gibbous, 90% of the Moon is Illuminated
Sep 3
Waning Gibbous
Sep 8
Last Quarter
Sep 15
New
Sep 22
First Quarter
Sep 29
Full

Hourly Weather History & Observations

Time (CDT) Temp. Heat Index Dew Point Humidity Pressure Visibility Wind Dir Wind Speed Gust Speed Precip Events Conditions
12:15 AM 82.4 °F 83.4 °F 62.6 °F 51% 29.97 in 10.0 mi SSE 6.9 mph - N/A   Partly Cloudy
12:35 AM 82.4 °F 83.4 °F 62.6 °F 51% 29.97 in 10.0 mi SSE 5.8 mph - N/A   Partly Cloudy
12:55 AM 82.4 °F 83.4 °F 62.6 °F 51% 29.97 in 10.0 mi SSE 5.8 mph - N/A   Partly Cloudy
1:15 AM 80.6 °F 81.8 °F 62.6 °F 54% 29.97 in 10.0 mi SE 4.6 mph - N/A   Partly Cloudy
1:35 AM 80.6 °F 81.8 °F 62.6 °F 54% 29.97 in 10.0 mi South 3.5 mph - N/A   Partly Cloudy
1:55 AM 78.8 °F - 62.6 °F 57% 29.97 in 10.0 mi SSE 4.6 mph - N/A   Scattered Clouds
2:15 AM 78.8 °F - 60.8 °F 54% 29.97 in 10.0 mi SSE 5.8 mph - N/A   Partly Cloudy
2:35 AM 78.8 °F - 60.8 °F 54% 29.97 in 10.0 mi SSE 6.9 mph - N/A   Clear
2:55 AM 78.8 °F - 60.8 °F 54% 29.97 in 10.0 mi SSE 8.1 mph - N/A   Clear
3:15 AM 78.8 °F - 62.6 °F 57% 29.97 in 10.0 mi South 8.1 mph - N/A   Clear
3:35 AM 77.0 °F - 62.6 °F 61% 29.97 in 10.0 mi SSE 4.6 mph - N/A   Clear
3:55 AM 77.0 °F - 62.6 °F 61% 29.97 in 10.0 mi SE 3.5 mph - N/A   Clear
4:15 AM 75.2 °F - 62.6 °F 65% 29.98 in 10.0 mi ESE 4.6 mph - N/A   Clear
4:35 AM 75.2 °F - 62.6 °F 65% 29.98 in 10.0 mi ESE 4.6 mph - N/A   Clear
4:55 AM 75.2 °F - 64.4 °F 69% 29.98 in 10.0 mi SSE 5.8 mph - N/A   Clear
5:15 AM 75.2 °F - 64.4 °F 69% 29.98 in 10.0 mi South 4.6 mph - N/A   Clear
5:35 AM 73.4 °F - 64.4 °F 73% 29.98 in 10.0 mi SSE 5.8 mph - N/A   Clear
5:55 AM 73.4 °F - 64.4 °F 73% 29.98 in 10.0 mi SSE 5.8 mph - N/A   Partly Cloudy
6:15 AM 73.4 °F - 64.4 °F 73% 29.99 in 10.0 mi SE 4.6 mph - N/A   Partly Cloudy
6:35 AM 73.4 °F - 64.4 °F 73% 29.99 in 10.0 mi ESE 4.6 mph - N/A   Clear
6:55 AM 71.6 °F - 64.4 °F 78% 30.00 in 10.0 mi SE 5.8 mph - N/A   Clear
7:15 AM 71.6 °F - 64.4 °F 78% 30.00 in 10.0 mi SE 5.8 mph - N/A   Clear
7:35 AM 71.6 °F - 64.4 °F 78% 30.01 in 10.0 mi South 3.5 mph - N/A   Clear
7:55 AM 73.4 °F - 66.2 °F 78% 30.01 in 10.0 mi SE 3.5 mph - N/A   Clear
8:15 AM 75.2 °F - 66.2 °F 73% 30.02 in 10.0 mi SSE 4.6 mph - N/A   Clear
8:35 AM 77.0 °F - 68.0 °F 74% 30.02 in 10.0 mi South 6.9 mph - N/A   Clear
8:55 AM 78.8 °F - 68.0 °F 69% 30.03 in 10.0 mi South 5.8 mph - N/A   Clear
9:15 AM 80.6 °F 83.2 °F 68.0 °F 65% 30.03 in 10.0 mi South 9.2 mph - N/A   Clear
9:35 AM 82.4 °F 84.6 °F 66.2 °F 58% 30.03 in 10.0 mi South 10.4 mph - N/A   Clear
9:55 AM 84.2 °F 86.6 °F 66.2 °F 55% 30.03 in 10.0 mi SSW 8.1 mph - N/A   Clear
10:15 AM 86.0 °F 87.3 °F 64.4 °F 48% 30.03 in 10.0 mi South 11.5 mph - N/A   Clear
10:35 AM 86.0 °F 86.6 °F 62.6 °F 45% 30.03 in 10.0 mi South 11.5 mph - N/A   Clear
10:55 AM 87.8 °F 88.5 °F 62.6 °F 43% 30.03 in 10.0 mi SSW 11.5 mph 17.3 mph N/A   Clear
11:15 AM 89.6 °F 90.1 °F 62.6 °F 40% 30.03 in 10.0 mi SSE 12.7 mph - N/A   Clear
11:35 AM 89.6 °F 90.1 °F 62.6 °F 40% 30.02 in 10.0 mi South 8.1 mph - N/A   Clear
11:55 AM 91.4 °F 92.1 °F 62.6 °F 38% 30.02 in 10.0 mi South 8.1 mph - N/A   Clear
12:15 PM 93.2 °F 93.3 °F 60.8 °F 34% 30.02 in 10.0 mi South 10.4 mph - N/A   Clear
12:35 PM 93.2 °F 93.3 °F 60.8 °F 34% 30.01 in 10.0 mi SSW 6.9 mph 16.1 mph N/A   Clear
12:55 PM 95.0 °F 95.2 °F 60.8 °F 32% 30.00 in 10.0 mi SSW 10.4 mph 16.1 mph N/A   Clear
1:15 PM 95.0 °F 94.4 °F 59.0 °F 30% 29.99 in 10.0 mi SSW 9.2 mph 16.1 mph N/A   Clear
1:35 PM 95.0 °F 94.4 °F 59.0 °F 30% 29.98 in 10.0 mi South 4.6 mph - N/A   Clear
1:55 PM 95.0 °F 94.4 °F 59.0 °F 30% 29.97 in 10.0 mi SSE 10.4 mph 18.4 mph N/A   Clear
2:15 PM 96.8 °F 95.8 °F 57.2 °F 27% 29.96 in 10.0 mi SE 6.9 mph 17.3 mph N/A   Clear
2:35 PM 98.6 °F 97.2 °F 55.4 °F 24% 29.96 in 10.0 mi South 10.4 mph 18.4 mph N/A   Clear
2:55 PM 98.6 °F 97.2 °F 55.4 °F 24% 29.95 in 10.0 mi South 13.8 mph 21.9 mph N/A   Clear
3:15 PM 100.4 °F 98.8 °F 55.4 °F 22% 29.94 in 10.0 mi South 13.8 mph 18.4 mph N/A   Clear
3:35 PM 100.4 °F 99.7 °F 57.2 °F 24% 29.93 in 10.0 mi SSW 11.5 mph 18.4 mph N/A   Clear
3:55 PM 100.4 °F 99.7 °F 57.2 °F 24% 29.91 in 10.0 mi SSW 12.7 mph 19.6 mph N/A   Clear
4:15 PM 100.4 °F 99.7 °F 57.2 °F 24% 29.91 in 10.0 mi SSW 3.5 mph 16.1 mph N/A   Clear
4:35 PM 100.4 °F 99.7 °F 57.2 °F 24% 29.90 in 10.0 mi SSE 11.5 mph 19.6 mph N/A   Clear
4:55 PM 100.4 °F 99.7 °F 57.2 °F 24% 29.89 in 10.0 mi ESE 8.1 mph 18.4 mph N/A   Clear
5:15 PM 100.4 °F 99.7 °F 57.2 °F 24% 29.88 in 10.0 mi SSE 12.7 mph 18.4 mph N/A   Clear
5:35 PM 100.4 °F 99.7 °F 57.2 °F 24% 29.89 in 10.0 mi SSE 10.4 mph - N/A   Clear
5:55 PM 100.4 °F 99.7 °F 57.2 °F 24% 29.88 in 10.0 mi SE 12.7 mph 18.4 mph N/A   Clear
6:15 PM 100.4 °F 98.8 °F 55.4 °F 22% 29.88 in 10.0 mi East 10.4 mph 16.1 mph N/A   Clear
6:35 PM 98.6 °F 97.2 °F 55.4 °F 24% 29.88 in 10.0 mi SSE 11.5 mph 16.1 mph N/A   Clear
6:55 PM 98.6 °F 97.2 °F 55.4 °F 24% 29.88 in 10.0 mi SSE 9.2 mph - N/A   Clear
7:15 PM 98.6 °F 96.4 °F 53.6 °F 22% 29.88 in 10.0 mi SE 10.4 mph - N/A   Clear
7:35 PM 95.0 °F 92.7 °F 53.6 °F 25% 29.88 in 10.0 mi SE 10.4 mph - N/A   Clear
7:55 PM 93.2 °F - 51.8 °F 24% 29.89 in 10.0 mi SE 6.9 mph - N/A   Clear
8:15 PM 91.4 °F - 51.8 °F 26% 29.89 in 10.0 mi SE 6.9 mph - N/A   Clear
8:35 PM 89.6 °F 87.3 °F 53.6 °F 29% 29.89 in 10.0 mi SE 5.8 mph - N/A   Clear
8:55 PM 87.8 °F 85.7 °F 53.6 °F 31% 29.90 in 10.0 mi SE 6.9 mph - N/A   Clear
9:15 PM 86.0 °F - 51.8 °F 31% 29.91 in 10.0 mi SSE 6.9 mph - N/A   Clear
9:35 PM 86.0 °F 84.2 °F 53.6 °F 33% 29.92 in 10.0 mi SE 8.1 mph - N/A   Clear
9:55 PM 86.0 °F 84.2 °F 53.6 °F 33% 29.92 in 10.0 mi SE 8.1 mph - N/A   Clear
10:15 PM 86.0 °F 84.2 °F 53.6 °F 33% 29.93 in 10.0 mi SSE 6.9 mph - N/A   Clear
10:35 PM 86.0 °F 84.2 °F 53.6 °F 33% 29.93 in 10.0 mi SE 6.9 mph - N/A   Clear
10:55 PM 84.2 °F 82.8 °F 53.6 °F 35% 29.94 in 10.0 mi SE 8.1 mph - N/A   Clear
11:15 PM 84.2 °F 83.0 °F 55.4 °F 37% 29.94 in 10.0 mi SSE 8.1 mph - N/A   Clear
11:35 PM 84.2 °F 83.0 °F 55.4 °F 37% 29.95 in 10.0 mi SSE 10.4 mph - N/A   Clear
11:55 PM 84.2 °F 83.0 °F 55.4 °F 37% 29.95 in 10.0 mi South 8.1 mph - N/A   Clear